FW7501 Weather Reports


time (UTC)temp
F
wind
direction
speed
knots
gust
knots
rain 1hr
in
rain 24hr
in
rain mn
in
humidity
%
barometer
mb
20260903053504 57 43 2.6 10.4 0.00 0.00 0.00 72 1015.2
20260903053027 57 318 7.0 10.4 0.00 0.00 0.00 71 1015.2
20260903052510 57 341 4.3 8.7 0.00 0.00 0.00 72 1015.1
20260903052015 57 308 6.1 12.2 0.00 0.00 0.00 70 1015.1
20260903051525 58 315 7.8 12.2 0.00 0.00 0.00 62 1015.0
20260903051010 59 282 6.1 12.2 0.00 0.00 0.00 58 1015.0
20260903050514 59 283 7.0 12.2 0.00 0.00 0.00 58 1014.7
20260903050033 59 280 8.7 12.2 0.00 0.00 0.00 59 1014.7
20260903045510 59 262 4.3 14.8 0.00 0.00 0.00 62 1014.6
20260903045007 58 242 7.8 15.6 0.00 0.00 0.00 60 1014.8
20260903044517 59 233 10.4 15.6 0.00 0.00 0.00 59 1014.8
20260903044010 59 268 7.0 14.8 0.00 0.00 0.00 59 1014.8
20260903043512 59 236 8.7 12.2 0.00 0.00 0.00 63 1014.7
20260903043015 59 237 6.1 12.2 0.00 0.00 0.00 66 1014.8
20260903042518 59 265 4.3 9.6 0.00 0.00 0.00 69 1014.8
20260903042015 58 270 2.6 8.7 0.00 0.00 0.00 70 1014.7
20260903041535 57 235 0.9 8.7 0.00 0.00 0.00 72 1014.8
20260903041015 56 220 1.7 8.7 0.00 0.00 0.00 73 1014.9
20260903040510 56 189 3.5 9.6 0.00 0.00 0.00 73 1014.9
20260903040032 55 219 3.5 11.3 0.00 0.00 0.00 74 1014.8
20260903035514 55 193 7.0 17.4 0.00 0.00 0.00 74 1014.6
20260903035010 55 161 7.8 17.4 0.00 0.00 0.00 74 1014.6
20260903034535 54 100 3.5 13.9 0.00 0.00 0.00 76 1014.7
20260903034009 54 320 2.6 7.8 0.00 0.00 0.00 76 1014.5
20260903033512 54 299 3.5 14.8 0.00 0.00 0.00 77 1014.3
20260903033020 54 93 1.7 14.8 0.00 0.00 0.00 77 1013.9
20260903032514 54 348 4.3 15.6 0.00 0.00 0.00 77 1014.0
20260903032011 54 12 8.7 15.6 0.00 0.00 0.00 77 1014.0
20260903031534 54 6 7.8 16.5 0.00 0.00 0.00 77 1013.9
20260903031016 54 7 7.0 16.5 0.00 0.00 0.00 77 1014.0
20260903030518 54 10 10.4 17.4 0.00 0.00 0.00 75 1014.0
20260903030023 54 9 9.6 17.4 0.00 0.00 0.00 75 1013.9
20260903025515 54 8 9.6 15.6 0.00 0.00 0.00 74 1014.0
20260903025014 54 358 7.8 18.2 0.00 0.00 0.00 75 1013.9
20260903024518 54 9 11.3 18.2 0.00 0.00 0.00 74 1013.8
20260903024019 54 345 9.6 16.5 0.00 0.00 0.00 75 1013.8
20260903023516 54 347 7.8 16.5 0.00 0.00 0.00 74 1013.9
20260903023033 55 8 9.6 17.4 0.00 0.00 0.00 74 1014.0
20260903022519 55 17 8.7 17.4 0.00 0.00 0.00 74 1014.0
20260903022002 56 356 10.4 17.4 0.00 0.00 0.00 75 1014.1
20260903021510 55 343 9.6 18.2 0.00 0.00 0.00 78 1014.0
20260903021007 54 339 12.2 18.2 0.00 0.00 0.00 77 1014.0
20260903020503 54 29 7.8 16.5 0.00 0.00 0.00 78 1014.1
20260903020011 55 13 7.8 18.2 0.00 0.00 0.00 78 1014.3
20260903015503 54 349 7.8 19.1 0.00 0.00 0.00 78 1014.4
20260903015003 54 2 9.6 19.1 0.00 0.00 0.00 80 1014.3
20260903014504 53 352 10.4 19.1 0.00 0.00 0.00 80 1014.3
20260903014004 52 331 11.3 19.1 0.00 0.00 0.00 79 1014.4
20260903013504 52 343 12.2 18.2 0.00 0.00 0.00 79 1014.5
20260903013004 53 358 12.2 17.4 0.00 0.00 0.00 81 1014.5
20260903012503 52 358 10.4 19.1 0.00 0.00 0.00 81 1014.4
20260903012004 51 337 8.7 19.1 0.00 0.00 0.00 82 1014.5
20260903011504 51 338 10.4 16.5 0.00 0.00 0.00 82 1014.4
20260903011004 50 351 9.6 16.5 0.00 0.00 0.00 82 1014.4
20260903010505 50 353 9.6 16.5 0.00 0.00 0.00 82 1014.3
20260903010004 50 337 10.4 18.2 0.00 0.00 0.00 81 1014.3
20260903005503 50 335 13.0 18.2 0.00 0.00 0.00 79 1014.1
20260903005006 51 14 11.3 19.1 0.00 0.00 0.00 79 1014.0
20260903004502 51 339 13.0 19.1 0.00 0.00 0.00 78 1014.0
20260903004004 50 14 10.4 19.1 0.00 0.00 0.00 79 1013.9
20260903003503 50 357 12.2 19.1 0.00 0.00 0.00 78 1013.9
20260903003004 50 354 11.3 18.2 0.00 0.00 0.00 78 1013.8
20260903002507 51 11 8.7 18.2 0.00 0.00 0.00 78 1013.8
20260903002007 51 339 11.3 18.2 0.00 0.00 0.00 78 1013.6
20260903001506 51 7 10.4 17.4 0.00 0.00 0.00 78 1013.6
20260903001004 50 23 9.6 15.6 0.00 0.00 0.00 79 1013.5
20260903000503 50 14 9.6 17.4 0.00 0.00 0.00 78 1013.5
20260903000003 50 333 12.2 17.4 0.00 0.00 0.00 78 1013.5
20260902235503 50 180 11.3 17.4 0.00 0.00 0.00 77 1013.6
20260902235004 50 2 10.4 18.2 0.00 0.00 0.00 78 1013.5
20260902234504 50 318 10.4 21.7 0.00 0.00 0.00 77 1013.5
20260902234008 50 349 10.4 21.7 0.00 0.00 0.00 77 1013.5
20260902233504 50 350 9.6 20.0 0.00 0.00 0.00 77 1013.5
20260902233010 50 23 11.3 20.0 0.00 0.00 0.00 76 1013.4
20260902232507 50 333 12.2 19.1 0.00 0.00 0.00 75 1013.3
20260902232004 51 4 10.4 19.1 0.00 0.00 0.00 75 1013.2
20260902231509 51 22 9.6 19.1 0.00 0.00 0.00 74 1013.3
20260902231006 51 4 9.6 18.2 0.00 0.00 0.00 75 1013.2
20260902230505 51 354 8.7 17.4 0.00 0.00 0.00 75 1013.1
20260902230004 51 18 7.8 17.4 0.00 0.00 0.00 74 1013.0
20260902225505 51 69 6.1 14.8 0.00 0.00 0.00 75 1012.9
20260902225004 51 19 6.1 14.8 0.00 0.00 0.00 75 1013.0
20260902224513 50 21 6.1 14.8 0.00 0.00 0.00 75 1012.9
20260902224008 50 43 4.3 14.8 0.00 0.00 0.00 75 1012.9
20260902223504 49 22 6.1 16.5 0.00 0.00 0.00 76 1013.0
20260902223006 49 358 6.1 16.5 0.00 0.00 0.00 76 1013.2
20260902222503 48 20 8.7 13.9 0.00 0.00 0.00 76 1013.1
20260902222004 48 354 7.8 13.0 0.00 0.00 0.00 78 1013.0
20260902221508 47 2 7.0 13.9 0.00 0.00 0.00 78 1013.0
20260902221004 47 10 5.2 13.9 0.00 0.00 0.00 78 1012.8
20260902220504 47 13 8.7 15.6 0.00 0.00 0.00 78 1012.8
20260902220008 47 15 7.0 15.6 0.00 0.00 0.00 78 1012.6
20260902215504 47 1 8.7 14.8 0.00 0.00 0.00 78 1012.7
20260902215007 47 23 7.8 14.8 0.00 0.00 0.00 77 1012.5
20260902214511 47 18 8.7 14.8 0.00 0.00 0.00 77 1012.4
20260902214006 47 15 7.8 14.8 0.00 0.00 0.00 77 1012.3
20260902213507 47 18 8.7 14.8 0.00 0.00 0.00 76 1012.2
20260902213004 47 354 7.8 18.2 0.00 0.00 0.00 76 1012.0
20260902212507 47 11 7.8 18.2 0.00 0.00 0.00 76 1011.8
20260902212005 46 1 5.2 12.2 0.00 0.00 0.00 76 1011.9
20260902211507 46 355 6.1 11.3 0.00 0.00 0.00 76 1011.8
20260902211011 47 39 4.3 12.2 0.00 0.00 0.00 75 1011.7
20260902210504 47 18 5.2 13.9 0.00 0.00 0.00 75 1011.5
20260902210010 47 346 7.8 13.9 0.00 0.00 0.00 75 1011.5
20260902205505 47 7 7.8 14.8 0.00 0.00 0.00 75 1011.4
20260902205003 47 344 8.7 15.6 0.00 0.00 0.00 74 1011.5
20260902204513 47 351 9.6 15.6 0.00 0.00 0.00 74 1011.4
20260902204007 47 337 9.6 14.8 0.00 0.00 0.00 74 1011.3
20260902203504 47 351 9.6 15.6 0.00 0.00 0.00 74 1011.3
20260902203013 47 2 8.7 16.5 0.00 0.00 0.00 74 1011.3
20260902202509 47 341 7.0 16.5 0.00 0.00 0.00 74 1011.3
20260902202008 47 349 8.7 16.5 0.00 0.00 0.00 74 1011.3
20260902201511 47 7 9.6 16.5 0.00 0.00 0.00 74 1011.3
20260902201007 46 341 8.7 14.8 0.00 0.00 0.00 75 1011.3
20260902200511 46 343 7.8 14.8 0.00 0.00 0.00 75 1011.3
20260902200005 46 339 8.7 14.8 0.00 0.00 0.00 75 1011.3
20260902195509 46 353 8.7 13.9 0.00 0.00 0.00 76 1011.3
20260902195008 45 347 5.2 10.4 0.00 0.00 0.00 77 1011.2
20260902194524 45 358 5.2 10.4 0.00 0.00 0.00 77 1011.3
20260902194008 45 7 5.2 13.0 0.00 0.00 0.00 77 1011.2
20260902193508 45 8 7.0 13.0 0.00 0.00 0.00 76 1011.3
20260902193011 45 15 7.0 12.2 0.00 0.00 0.00 77 1011.0
20260902192510 45 22 5.2 11.3 0.00 0.00 0.00 77 1010.9
20260902192007 45 354 6.1 11.3 0.00 0.00 0.00 77 1010.9
20260902191518 45 14 4.3 9.6 0.00 0.00 0.00 77 1010.9
20260902191009 45 27 3.5 8.7 0.00 0.00 0.00 76 1010.9
20260902190509 45 345 5.2 8.7 0.00 0.00 0.00 76 1010.9
20260902190017 45 337 2.6 8.7 0.00 0.00 0.00 75 1010.7
20260902185508 46 20 3.5 7.0 0.00 0.00 0.00 75 1010.8
20260902185004 46 36 2.6 6.1 0.00 0.00 0.00 75 1010.7
20260902184523 45 37 2.6 7.8 0.00 0.00 0.00 76 1010.7
20260902184011 45 30 2.6 7.8 0.00 0.00 0.00 76 1010.6
20260902183510 45 37 3.5 7.0 0.00 0.00 0.00 77 1010.7
20260902183014 44 37 1.7 7.8 0.00 0.00 0.00 77 1010.8
20260902182507 44 14 4.3 7.8 0.00 0.00 0.00 76 1010.9
20260902182009 45 337 4.3 8.7 0.00 0.00 0.00 76 1011.0
20260902181519 45 1 5.2 8.7 0.00 0.00 0.00 76 1010.9
20260902181011 45 4 4.3 7.8 0.00 0.00 0.00 75 1011.0
20260902180511 45 11 1.7 4.3 0.00 0.00 0.00 75 1011.0
20260902180018 45 16 1.7 5.2 0.00 0.00 0.00 75 1010.9
20260902175512 45 14 2.6 5.2 0.00 0.00 0.00 75 1010.8
20260902175012 45 20 2.6 6.1 0.00 0.00 0.00 75 1010.7
20260902174515 45 2 3.5 6.1 0.00 0.00 0.00 74 1010.7
20260902174017 45 20 3.5 5.2 0.00 0.00 0.00 74 1010.7
20260902173514 45 22 1.7 5.2 0.00 0.00 0.00 74 1010.6
20260902173021 45 16 1.7 5.2 0.00 0.00 0.00 74 1010.6
20260902172510 45 355 2.6 7.8 0.00 0.00 0.00 73 1010.6
20260902172009 46 3 3.5 7.8 0.00 0.00 0.00 73 1010.6
20260902171516 46 15 2.6 6.1 0.00 0.00 0.00 74 1010.6
20260902171013 46 29 2.6 5.2 0.00 0.00 0.00 74 1010.6
20260902170508 46 18 0.9 5.2 0.00 0.00 0.00 74 1010.6
20260902170024 46 18 2.6 6.1 0.00 0.00 0.00 74 1010.7
20260902165513 46 5 3.5 7.0 0.00 0.00 0.00 73 1011.0
20260902165013 46 349 4.3 7.0 0.00 0.00 0.00 73 1010.9
20260902164523 46 8 3.5 5.2 0.00 0.00 0.00 73 1011.0
20260902164010 46 331 2.6 7.0 0.00 0.00 0.00 73 1011.1
20260902163513 46 360 2.6 7.0 0.00 0.00 0.00 72 1011.1
20260902163027 46 17 2.6 6.1 0.00 0.00 0.00 72 1011.1
20260902162517 47 336 2.6 6.1 0.00 0.00 0.00 72 1011.2
20260902162013 47 8 2.6 5.2 0.00 0.00 0.00 73 1011.1
20260902161529 47 51 1.7 5.2 0.00 0.00 0.00 73 1011.1
20260902161016 47 57 0.9 6.1 0.00 0.00 0.00 73 1011.1
20260902160514 47 6 1.7 6.1 0.00 0.00 0.00 74 1011.2
20260902160027 47 30 1.7 5.2 0.00 0.00 0.00 74 1011.3
20260902155519 47 18 1.7 4.3 0.00 0.00 0.00 74 1011.4
20260902155012 47 26 0.0 5.2 0.00 0.00 0.00 74 1011.5
20260902154544 47 12 1.7 6.1 0.00 0.00 0.00 74 1011.5
20260902154019 47 15 3.5 10.4 0.00 0.00 0.00 74 1011.6
20260902153512 47 355 3.5 10.4 0.00 0.00 0.00 74 1011.6
20260902153025 48 344 5.2 10.4 0.00 0.00 0.00 74 1011.7
20260902152515 47 3 5.2 10.4 0.00 0.00 0.00 75 1011.7
20260902152013 47 354 5.2 8.7 0.00 0.00 0.00 75 1011.6
20260902151536 47 358 5.2 9.6 0.00 0.00 0.00 75 1011.6
20260902151019 48 330 5.2 9.6 0.00 0.00 0.00 75 1011.6
20260902150518 48 345 5.2 9.6 0.00 0.00 0.00 75 1011.6
20260902150026 47 357 4.3 9.6 0.00 0.00 0.00 76 1011.6
20260902145513 47 359 3.5 7.0 0.00 0.00 0.00 76 1011.7
20260902145016 47 346 3.5 6.1 0.00 0.00 0.00 76 1011.7
20260902144524 47 18 3.5 6.1 0.00 0.00 0.00 76 1011.7
20260902144012 47 30 2.6 6.1 0.00 0.00 0.00 76 1011.7
20260902143516 47 6 3.5 6.1 0.00 0.00 0.00 76 1011.7
20260902143025 47 16 2.6 5.2 0.00 0.00 0.00 76 1011.6
20260902142506 47 6 2.6 5.2 0.00 0.00 0.00 76 1011.7
20260902142005 47 23 1.7 3.5 0.00 0.00 0.00 75 1011.8
20260902141507 47 19 1.7 5.2 0.00 0.00 0.00 75 1011.8
20260902141007 48 1 2.6 7.0 0.00 0.00 0.00 74 1011.8
20260902140506 48 355 3.5 7.0 0.00 0.00 0.00 73 1011.8
20260902140015 49 345 4.3 7.0 0.00 0.00 0.00 72 1011.8
20260902135509 49 338 4.3 10.4 0.00 0.00 0.00 71 1011.8
20260902135005 50 338 4.3 10.4 0.00 0.00 0.00 71 1011.8
20260902134517 50 322 3.5 9.6 0.00 0.00 0.00 70 1011.8
20260902134007 50 326 4.3 9.6 0.00 0.00 0.00 71 1011.9
20260902133515 50 313 3.5 8.7 0.00 0.00 0.00 71 1012.0
20260902133021 50 341 4.3 7.8 0.00 0.00 0.00 73 1012.0
20260902132508 50 340 4.3 10.4 0.00 0.00 0.00 73 1012.1
20260902132015 50 342 4.3 10.4 0.00 0.00 0.00 73 1012.2
20260902131527 50 360 4.3 7.0 0.00 0.00 0.00 73 1012.2
20260902131004 49 332 3.5 7.0 0.00 0.00 0.00 73 1012.2
20260902130505 49 359 4.3 7.0 0.00 0.00 0.00 73 1012.4
20260902130024 49 346 3.5 7.0 0.00 0.00 0.00 73 1012.4
20260902125506 49 352 2.6 5.2 0.00 0.00 0.00 73 1012.4
20260902125008 49 356 1.7 5.2 0.00 0.00 0.00 73 1012.5
20260902124509 49 12 1.7 7.0 0.00 0.00 0.00 73 1012.6
20260902124009 49 338 4.3 7.0 0.00 0.00 0.00 73 1012.6
20260902123512 49 357 1.7 4.3 0.00 0.00 0.00 73 1012.7
20260902123024 49 308 0.9 2.6 0.00 0.00 0.00 73 1012.7
20260902122514 49 308 1.7 2.6 0.00 0.00 0.00 72 1012.8
20260902122009 49 308 0.0 2.6 0.00 0.00 0.00 71 1012.8
20260902121526 49 308 0.0 3.5 0.00 0.00 0.00 71 1012.8
20260902121017 49 313 0.9 4.3 0.00 0.00 0.00 72 1012.7
20260902120509 49 354 1.7 4.3 0.00 0.00 0.00 71 1012.7
20260902120032 49 73 0.9 5.2 0.00 0.00 0.00 72 1012.7
20260902115510 49 49 1.7 5.2 0.00 0.00 0.00 72 1012.8
20260902115005 49 19 1.7 5.2 0.00 0.00 0.00 72 1012.8
20260902114518 49 18 2.6 5.2 0.00 0.00 0.00 73 1012.9
20260902114010 49 31 2.6 5.2 0.00 0.00 0.00 73 1012.9
20260902113510 49 32 1.7 5.2 0.00 0.00 0.00 73 1012.9
20260902113014 49 70 0.9 7.8 0.00 0.00 0.00 73 1013.0
20260902112509 50 29 2.6 7.8 0.00 0.00 0.00 73 1013.1
20260902112014 49 349 3.5 7.8 0.00 0.00 0.00 74 1013.1
20260902111521 50 353 5.2 8.7 0.00 0.00 0.00 74 1013.2
20260902111013 50 321 5.2 8.7 0.00 0.00 0.00 74 1013.3
20260902110512 49 330 3.5 8.7 0.00 0.00 0.00 74 1013.4
20260902110025 49 317 4.3 8.7 0.00 0.00 0.00 75 1013.5
20260902105516 49 327 5.2 7.8 0.00 0.00 0.00 75 1013.4
20260902105017 49 318 5.2 8.7 0.00 0.00 0.00 75 1013.4
20260902104514 49 337 6.1 8.7 0.00 0.00 0.00 74 1013.4
20260902104016 48 318 6.1 8.7 0.00 0.00 0.00 75 1013.4
20260902103512 48 331 4.3 9.6 0.00 0.00 0.00 75 1013.3
20260902103009 47 333 6.1 9.6 0.00 0.00 0.00 74 1013.3
20260902102509 48 326 4.3 7.8 0.00 0.00 0.00 73 1013.2
20260902102010 49 343 4.3 7.8 0.00 0.00 0.00 72 1013.1
20260902101518 49 318 4.3 8.7 0.00 0.00 0.00 71 1013.1
20260902101014 50 326 5.2 8.7 0.00 0.00 0.00 71 1013.2
20260902100513 50 322 4.3 9.6 0.00 0.00 0.00 71 1013.1
20260902100027 50 310 5.2 9.6 0.00 0.00 0.00 70 1012.9
20260902095514 51 328 6.1 10.4 0.00 0.00 0.00 70 1012.8
20260902095016 51 345 6.1 12.2 0.00 0.00 0.00 71 1012.9
20260902094530 51 322 7.0 12.2 0.00 0.00 0.00 71 1012.8
20260902094012 51 297 7.0 12.2 0.00 0.00 0.00 71 1012.7
20260902093518 51 328 6.1 11.3 0.00 0.00 0.00 71 1012.7
20260902093035 51 323 7.0 12.2 0.00 0.00 0.00 72 1012.6
20260902092519 50 325 7.8 12.2 0.00 0.00 0.00 72 1012.6
20260902092016 50 349 7.0 12.2 0.00 0.00 0.00 72 1012.5
20260902091527 50 356 8.7 12.2 0.00 0.00 0.00 72 1012.5
20260902091012 50 335 7.8 10.4 0.00 0.00 0.00 72 1012.4
20260902090513 50 331 7.0 10.4 0.00 0.00 0.00 71 1012.5
20260902090018 50 312 6.1 10.4 0.00 0.00 0.00 71 1012.5
20260902085511 50 318 6.1 10.4 0.00 0.00 0.00 71 1012.5
20260902085015 51 314 6.1 9.6 0.00 0.00 0.00 70 1012.5
20260902084528 51 342 6.1 9.6 0.00 0.00 0.00 70 1012.4
20260902084015 51 324 6.1 9.6 0.00 0.00 0.00 69 1012.4
20260902083513 52 320 6.1 9.6 0.00 0.00 0.00 69 1012.3
20260902083036 52 331 6.1 9.6 0.00 0.00 0.00 69 1012.4
20260902082503 52 341 6.1 10.4 0.00 0.00 0.00 69 1012.4
20260902082008 52 339 7.0 11.3 0.00 0.00 0.00 69 1012.3
20260902081507 53 344 6.1 11.3 0.00 0.00 0.00 69 1012.3
20260902081016 53 338 7.0 12.2 0.00 0.00 0.00 68 1012.4
20260902080509 53 334 8.7 12.2 0.00 0.00 0.00 68 1012.4
20260902080005 53 351 6.1 10.4 0.00 0.00 0.00 69 1012.3
20260902075511 54 343 6.1 10.4 0.00 0.00 0.00 68 1012.3
20260902075007 54 335 6.1 11.3 0.00 0.00 0.00 68 1012.2
20260902074505 55 328 7.0 12.2 0.00 0.00 0.00 67 1012.2
20260902074012 55 345 7.0 14.8 0.00 0.00 0.00 67 1012.1
20260902073505 56 324 7.8 14.8 0.00 0.00 0.00 67 1012.1
20260902073014 56 337 5.2 13.9 0.00 0.00 0.00 67 1012.2
20260902072503 56 347 7.8 16.5 0.00 0.00 0.00 66 1012.2
20260902072006 57 8 7.8 16.5 0.00 0.00 0.00 66 1012.2
20260902071507 57 14 7.0 13.9 0.00 0.00 0.00 66 1012.2
20260902071008 57 10 5.2 14.8 0.00 0.00 0.00 66 1012.2
20260902070507 56 347 7.0 14.8 0.00 0.00 0.00 65 1012.1
20260902070015 57 358 8.7 16.5 0.00 0.00 0.00 64 1012.2
20260902065508 57 347 9.6 16.5 0.00 0.00 0.00 64 1012.2
20260902065012 58 344 7.8 14.8 0.00 0.00 0.00 63 1012.2
20260902064517 58 11 6.1 12.2 0.00 0.00 0.00 65 1012.2
20260902064006 57 351 5.2 12.2 0.00 0.00 0.00 65 1012.3
20260902063512 57 339 6.1 13.9 0.00 0.00 0.00 65 1012.3
20260902063017 57 345 8.7 13.9 0.00 0.00 0.00 63 1012.4
20260902062516 59 332 7.8 13.0 0.00 0.00 0.00 62 1012.5
20260902062014 60 341 7.8 13.0 0.00 0.00 0.00 63 1012.5
20260902061506 59 339 6.1 14.8 0.00 0.00 0.00 65 1012.6
20260902061011 59 349 7.0 15.6 0.00 0.00 0.00 62 1012.6
20260902060508 60 358 7.8 15.6 0.00 0.00 0.00 64 1012.7
20260902060008 58 11 5.2 13.0 0.00 0.00 0.00 64 1012.5
20260902055508 58 347 5.2 14.8 0.00 0.00 0.00 64 1012.6
20260902055010 59 7 7.0 14.8 0.00 0.00 0.00 62 1012.7
20260902054524 60 337 11.3 14.8 0.00 0.00 0.00 61 1012.6
20260902054009 58 339 7.0 13.9 0.00 0.00 0.00 64 1012.7